This demonstration page uses our WeatherBlox Daily Observations layout. Learn more.

Left ArrowRight Arrow

Hourly Observations for March 17, 2018

Temp ( °F °C ) Dew Point ( °F °C ) Humidity (%) Winds ( mph kmh ) Pressure ( in mb ) Visibility ( mi km ) Precip ( " mm )
12:53 am 00:53 Partly Cloudy 39 3.9 38 3.3 96 96 SW 3 6 29.87 1012 8 13 0.00 0.00
1:40 am 01:40 Partly Cloudy with Mist and Fog 38 3.3 37 2.8 97 97 N 3 6 29.91 1013 4 6 0.00 0.00
1:43 am 01:43 Mostly Cloudy with Mist and Fog 38 3.3 37 2.8 97 97 NNW 3 6 29.91 1013 1 2 0.00 0.00
1:50 am 01:50 Mostly Cloudy with Fog 37 3 37 3 100 100 WNW 3 6 29.91 1013 0 0 0.00 0.00
1:53 am 01:53 Mostly Cloudy with Fog 38 3.3 38 3.3 100 100 Calm 29.89 1012 0 0 0.00 0.00
2:00 am 02:00 Mostly Cloudy with Fog 37 2.8 37 2.8 100 100 Calm 29.91 1013 1 1 0.00 0.00
2:18 am 02:18 Cloudy with Mist and Fog 37 2.8 36 2.2 96 96 Calm 29.94 1014 1 2 0.00 0.00
2:21 am 02:21 Cloudy with Mist and Fog 38 3.3 37 2.8 97 97 Calm 29.94 1014 3 4 0.00 0.00
2:28 am 02:28 Cloudy 38 3.3 38 3.3 100 100 Calm 29.94 1014 8 13 0.00 0.00
2:53 am 02:53 Cloudy 39 3.9 38 3.3 96 96 WNW 3 6 29.90 1013 8 13 0.00 0.00
3:53 am 03:53 Cloudy 39 3.9 38 3.3 96 96 Calm 29.91 1013 10 16 0.00 0.00
4:53 am 04:53 Cloudy 40 4.4 38 3.3 93 93 Calm 29.92 1013 10 16 0.00 0.00
5:19 am 05:19 Cloudy 40 4.4 38 3.3 93 93 Calm 29.94 1014 10 16 0.00 0.00
5:35 am 05:35 Cloudy 40 4.4 38 3.3 93 93 NNE 3 6 29.94 1014 10 16 0.00 0.00
5:53 am 05:53 Cloudy 40 4.4 39 3.9 97 97 Calm 29.94 1014 8 13 0.00 0.00
6:13 am 06:13 Cloudy 40 4.4 39 3.9 97 97 Calm 29.94 1014 8 13 0.00 0.00
6:53 am 06:53 Cloudy 41 5 39 3.9 93 93 Calm 29.96 1014 8 13 0.00 0.00
7:53 am 07:53 Cloudy 41 5 40 4.4 96 96 Calm 29.97 1015 8 13 0.00 0.00
8:45 am 08:45 Cloudy 43 6.1 39 3.9 86 86 Calm 30.00 1016 10 16 0.00 0.00
8:53 am 08:53 Cloudy 43 6.1 39 3.9 86 86 Calm 29.99 1016 10 16 0.00 0.00
9:53 am 09:53 Cloudy 43 6.1 39 3.9 86 86 SSW 3 6 30.01 1016 10 16 0.00 0.00
10:13 am 10:13 Cloudy 44 6.7 39 3.9 83 83 S 5 7 30.00 1016 10 16 0.00 0.00
10:43 am 10:43 Cloudy 44 6.7 39 3.9 83 83 WSW 5 7 30.03 1017 10 16 0.00 0.00
10:53 am 10:53 Cloudy 45 7.2 39 3.9 80 80 VRB 3 6 30.02 1017 10 16 0.00 0.00
11:32 am 11:32 Mostly Sunny 47 8.3 39 3.9 74 74 Calm 30.03 1017 10 16 0.00 0.00
11:53 am 11:53 Mostly Sunny 48 8.9 38 3.3 68 68 Calm 30.02 1017 10 16 0.00 0.00
12:53 pm 12:53 Mostly Sunny 51 10.6 37 2.8 59 59 SSE 5 7 30.02 1017 10 16 0.00 0.00
1:53 pm 13:53 Partly Cloudy 53 11.7 35 1.7 51 51 NNW 3 6 30.01 1016 10 16 0.00 0.00
2:53 pm 14:53 Sunny 54 12.2 34 1.1 47 47 ENE 5 7 30.00 1016 10 16 0.00 0.00
3:53 pm 15:53 Sunny 54 12.2 33 0.6 45 45 SSE 3 6 29.99 1016 10 16 0.00 0.00
4:53 pm 16:53 Sunny 56 13.3 31 -0.6 39 39 Calm 29.98 1015 10 16 0.00 0.00
5:53 pm 17:53 Sunny 56 13.3 31 -0.6 39 39 E 3 6 29.99 1016 10 16 0.00 0.00
6:53 pm 18:53 Mostly Sunny 54 12 30 -1 41 41 Calm 30.00 1016 10 16 0.00 0.00
7:53 pm 19:53 Partly Cloudy 49 9.4 35 1.7 59 59 Calm 30.01 1016 10 16 0.00 0.00
8:53 pm 20:53 Mostly Cloudy 46 7.8 35 1.7 66 66 Calm 30.02 1017 10 16 0.00 0.00
9:53 pm 21:53 Clear 45 7.2 37 2.8 74 74 N 6 9 30.04 1017 10 16 0.00 0.00
10:53 pm 22:53 Mostly Cloudy 42 5.6 37 2.8 82 82 NNE 3 6 30.06 1018 10 16 0.00 0.00
11:53 pm 23:53 Cloudy 42 5.6 37 2.8 82 82 N 3 6 30.08 1019 10 16 0.00 0.00

Powered by AerisWeather